Poplar Bluff, MO

2:36 PM CDT on April 27, 2017 (GMT -0500)
Poplar Bluff Municipal

Weather History for KPOF - December, 2011

Change the Weather History Date:

Monday, December 12, 2011

  Actual Average Record
Temperature  
Mean Temperature 38 °F -  
Max Temperature 50 °F 47 °F 75 °F (1948)
Min Temperature 26 °F 28 °F -2 °F (1962)
Degree Days  
Heating Degree Days 27    
Moisture  
Dew Point 31 °F    
Average Humidity 77    
Maximum Humidity 89    
Minimum Humidity 54    
Precipitation  
Precipitation 0.00 in - - ()
Sea Level Pressure  
Sea Level Pressure 30.40 in    
Wind  
Wind Speed 1 mph (WSW)    
Max Wind Speed 4 mph    
Max Gust Speed -    
Visibility 10 miles    
Events      
Averages and records for this station are not official NWS values.
T = Trace of Precipitation, MM = Missing Value Source: NWS Daily Summary

Daily Weather History Graph

Daily Weather History Graph

Search for Another Location

Airport or City:

Trip Planner

Search our weather history database for the weather conditions in past years. The results will help you decide how hot, cold, wet, or windy it might be!

Date:

Astronomy

Dec. 12, 2011 Rise Set
Actual Time 7:04 AM CST 4:45 PM CST
Civil Twilight 6:35 AM CST 5:14 PM CST
Nautical Twilight 6:03 AM CST 5:46 PM CST
Astronomical Twilight 5:31 AM CST 6:18 PM CST
Moon 6:55 PM CST (12/12) 8:37 AM CST (12/12)
Length of Visible Light 10h 38m
Length of Day
9h 41m
Waning Gibbous, 95% of the Moon is Illuminated
Dec 12
Waning Gibbous
Dec 17
Last Quarter
Dec 24
New
Jan 1
First Quarter
Jan 9
Full

Hourly Weather History & Observations

Time (CST) Temp. Windchill Dew Point Humidity Pressure Visibility Wind Dir Wind Speed Gust Speed Precip Events Conditions
12:53 AM 26.1 °F - 23.0 °F 88% 30.40 in 10.0 mi Calm Calm - N/A   Clear
1:53 AM 26.1 °F 21.9 °F 23.0 °F 88% 30.39 in 10.0 mi NNW 3.5 mph - N/A   Clear
2:53 AM 26.1 °F - 23.0 °F 88% 30.40 in 10.0 mi Calm Calm - N/A   Clear
3:53 AM 28.0 °F - 25.0 °F 88% 30.39 in 10.0 mi Calm Calm - N/A   Clear
4:53 AM 28.9 °F - 26.1 °F 89% 30.39 in 10.0 mi Calm Calm - N/A   Partly Cloudy
5:53 AM 30.0 °F - 27.0 °F 88% 30.40 in 10.0 mi Calm Calm - N/A   Clear
6:53 AM 30.0 °F - 26.1 °F 85% 30.41 in 10.0 mi Calm Calm - N/A   Clear
8:53 AM 33.1 °F - 28.0 °F 82% 30.44 in 10.0 mi Calm Calm - N/A   Clear
9:53 AM 39.0 °F 36.8 °F 28.9 °F 67% 30.45 in 10.0 mi NNW 3.5 mph - N/A   Clear
10:53 AM 42.1 °F - 32.0 °F 67% 30.43 in 10.0 mi Calm Calm - N/A   Clear
11:53 AM 46.9 °F - 33.1 °F 59% 30.41 in 10.0 mi Calm Calm - N/A   Clear
12:53 PM 48.9 °F - 33.1 °F 54% 30.39 in 10.0 mi SSW 3.5 mph - N/A   Partly Cloudy
1:53 PM 50.0 °F - 35.1 °F 57% 30.38 in 10.0 mi SSW 3.5 mph - N/A   Overcast
2:53 PM 50.0 °F - 35.1 °F 57% 30.38 in 9.0 mi Calm Calm - N/A   Overcast
3:53 PM 48.9 °F - 35.1 °F 59% 30.37 in 10.0 mi South 3.5 mph - N/A   Overcast
5:53 PM 39.9 °F 37.8 °F 35.1 °F 83% 30.38 in 10.0 mi WNW 3.5 mph - N/A   Scattered Clouds
6:53 PM 42.1 °F - 36.0 °F 79% 30.40 in 10.0 mi Calm Calm - N/A   Clear
7:53 PM 42.1 °F - 37.0 °F 82% 30.40 in 10.0 mi Calm Calm - N/A   Overcast
8:53 PM 42.1 °F - 37.9 °F 85% 30.41 in 10.0 mi Calm Calm - N/A   Overcast
9:53 PM 42.1 °F - 37.0 °F 82% 30.42 in 10.0 mi Calm Calm - N/A   Overcast
10:53 PM 42.1 °F - 37.9 °F 85% 30.40 in 10.0 mi Calm Calm - 0.00 in   Mostly Cloudy
11:53 PM 42.1 °F - 37.9 °F 85% 30.39 in 9.0 mi Calm Calm - N/A   Overcast